RH
31 31 31 31 31 32 34 35 37 39 42 44 45 47 48 49 49 48 47 46 46 45 45 44 44 44 43 43 42 41 41 40 41 41 42 43 44 45 46 47 47 47 47 47 46 46 45 44 44 44 44 45 45 47 48 48 49 49 49 49 49 50 50 51 52 53 54 54 55
31 31 30 31 31 32 33 34 36 38 40 42 44 46 47 49 49 48 48 47 47 46 46 46 45 45 44 44 43 42 41 40 40 40 41 41 43 44 46 47 48 48 48 49 49 48 48 47 47 46 46 47 48 49 50 50 51 51 51 51 51 52 53 54 54 55 56 57 58
30 30 31 31 31 31 32 33 34 36 38 41 43 45 47 48 48 48 48 48 48 48 48 48 47 46 45 45 44 43 42 41 40 40 39 40 41 43 44 46 47 49 49 50 51 51 51 51 50 50 50 50 51 52 52 53 53 53 53 54 54 54 55 56 57 57 58 59 60
30 30 30 30 30 30 30 31 33 35 37 39 41 43 45 46 47 48 48 48 49 49 49 48 47 46 45 45 44 43 42 41 40 39 39 39 40 41 43 45 47 49 50 51 52 53 54 54 54 53 53 53 54 54 55 55 55 55 55 56 56 57 57 58 58 59 60 61 63
30 30 30 29 29 29 30 31 32 34 36 37 40 42 43 45 46 47 48 49 49 49 49 49 48 46 45 45 44 44 43 42 41 40 39 38 39 40 41 44 46 48 50 52 53 54 55 57 57 57 56 56 56 56 57 57 57 57 58 58 58 59 59 60 60 61 62 63 65
29 29 29 29 29 29 30 31 32 33 34 36 38 40 42 43 44 46 47 48 49 49 49 49 48 47 46 45 45 44 44 43 42 41 39 38 38 38 40 42 45 48 50 52 54 55 57 58 59 59 59 59 59 59 59 59 60 60 60 60 61 61 61 62 62 63 64 66 67
30 30 30 30 30 30 30 31 31 32 33 35 36 38 40 41 43 44 46 47 48 49 49 49 48 47 45 45 44 44 44 43 43 42 40 39 38 38 39 41 44 47 50 52 54 56 57 59 61 62 62 62 62 61 61 61 61 61 61 62 62 62 63 64 64 65 66 68 68
30 30 30 30 30 30 30 30 31 31 32 33 35 36 38 40 42 43 45 46 48 48 49 48 47 46 45 44 43 43 43 43 42 42 40 39 38 37 38 39 42 46 49 51 54 56 58 59 61 62 63 63 63 63 62 62 62 62 63 63 63 64 65 65 66 67 68 68 68
31 31 31 30 30 30 30 30 30 30 31 32 33 35 37 39 40 42 44 45 46 47 47 47 46 45 43 42 42 42 42 42 42 41 40 39 37 37 37 38 41 44 47 50 53 55 57 58 60 61 62 62 63 63 63 63 64 64 64 64 65 66 66 67 67 68 68 68 68
31 31 31 31 30 30 29 29 29 29 30 31 32 34 36 38 39 41 42 43 44 45 46 45 45 43 42 41 40 40 41 41 40 40 39 38 37 36 36 37 39 43 46 49 52 54 56 57 58 59 60 61 62 63 64 65 65 66 66 66 67 67 67 68 67 67 68 68 68
31 31 31 31 30 29 29 29 28 28 29 30 32 34 35 37 38 38 40 41 42 43 43 43 42 41 39 38 38 39 39 39 39 38 38 38 38 37 37 38 40 42 46 49 51 54 55 57 58 59 60 62 63 65 66 66 67 67 67 67 67 67 68 67 67 67 67 67 67
31 31 31 30 30 29 29 28 27 28 28 29 31 32 34 35 36 36 37 38 39 40 41 41 40 39 37 36 36 37 37 37 37 37 37 37 38 38 39 40 42 44 47 49 52 54 56 58 59 60 62 63 65 66 67 67 67 67 68 67 67 67 67 67 67 67 67 67 67
30 31 30 30 30 29 28 27 27 27 28 29 30 31 33 34 34 35 35 36 37 37 39 40 40 39 37 36 35 35 35 36 36 36 36 37 37 38 39 40 42 45 47 50 52 55 57 58 60 62 63 64 65 66 67 67 67 67 67 67 67 66 66 66 66 66 66 66 66
30 30 30 29 29 28 28 27 27 27 27 28 29 31 32 33 33 33 34 34 35 36 37 39 39 40 40 39 38 36 35 35 35 35 36 36 37 38 39 41 43 45 48 50 52 55 57 59 60 61 63 64 64 65 65 65 65 65 65 65 65 65 65 65 66 66 66 66 65
29 29 29 29 28 28 27 27 27 27 28 28 29 30 31 32 32 33 33 33 34 35 36 37 39 40 41 42 41 40 38 37 36 35 36 36 37 38 40 41 43 46 48 50 52 54 56 57 59 60 61 62 62 62 62 62 63 63 63 64 64 64 65 65 65 65 65 64 64
28 28 28 28 28 27 27 27 27 27 28 28 29 30 31 32 32 32 32 33 33 34 35 36 38 39 40 42 43 43 43 41 39 37 36 36 37 38 40 42 44 46 49 50 52 53 55 56 57 58 59 60 60 60 60 61 61 62 62 63 63 64 64 64 64 64 63 63 64
28 28 28 27 27 27 27 27 27 28 28 29 29 30 31 32 32 32 32 32 33 33 34 35 36 38 39 41 42 44 45 45 43 40 39 37 37 38 39 41 44 46 48 50 51 52 54 55 56 57 58 58 59 59 59 60 60 61 62 62 62 63 63 63 63 63 62 63 64
28 27 27 27 27 27 27 27 27 28 28 28 29 30 31 31 31 31 31 32 32 33 34 34 36 37 39 40 42 43 45 46 45 43 41 39 38 38 39 40 43 44 46 48 50 51 52 53 54 55 57 57 58 58 59 59 60 61 61 62 62 62 63 63 63 62 62 63 64
28 28 28 27 27 27 27 27 27 28 28 28 29 30 30 31 31 31 31 31 32 32 33 34 35 37 38 40 41 43 44 45 46 45 44 41 40 39 39 40 41 43 45 46 48 49 51 52 53 55 56 57 57 58 59 59 60 61 61 62 62 62 63 63 63 63 62 63 64
29 29 28 28 28 28 28 28 28 28 28 28 29 29 30 31 31 31 31 31 32 33 33 34 35 37 38 40 42 43 44 45 45 45 45 44 42 41 41 41 42 42 43 44 46 48 49 51 53 54 55 57 58 58 59 60 61 61 62 62 62 63 63 63 63 63 63 63 63
31 31 30 30 30 30 29 29 29 29 29 29 30 30 31 31 31 32 32 32 32 33 33 34 35 37 38 40 42 43 44 44 45 45 45 45 44 44 43 43 43 43 44 44 45 47 49 51 52 54 56 57 58 59 60 61 61 62 62 62 63 63 63 63 63 63 62 62 62
34 33 33 33 32 32 31 31 31 31 31 31 31 32 33 33 33 33 34 34 34 34 35 35 36 37 39 40 42 43 44 45 45 46 46 46 46 46 45 45 46 46 47 47 47 48 49 51 53 55 56 58 59 60 61 62 63 63 63 63 63 64 64 64 63 62 62 62 62
35 35 34 34 34 34 34 34 33 33 33 34 34 35 36 36 36 36 36 37 37 37 37 37 38 39 40 41 42 43 44 45 46 47 48 48 48 48 48 48 49 50 50 50 49 50 51 52 54 55 57 58 60 61 62 63 64 64 64 64 64 65 65 64 63 61 61 62 62
37 36 35 35 35 35 35 35 35 36 36 36 37 38 38 39 39 40 40 41 41 41 41 41 41 41 41 42 43 44 45 46 47 49 49 50 51 51 51 51 52 52 52 52 51 51 52 53 54 56 57 59 61 62 64 65 65 65 65 65 66 66 65 64 62 61 61 62 62
39 38 37 36 35 35 35 36 36 37 38 38 39 40 40 41 42 43 44 44 45 46 46 46 46 46 46 47 47 47 48 48 49 50 51 52 53 54 54 54 54 53 53 53 53 53 54 55 56 58 60 61 63 65 66 67 67 67 67 67 67 67 66 64 62 61 62 62 62
40 39 38 37 36 36 35 35 36 37 37 38 39 40 41 42 43 44 45 47 48 49 50 51 52 53 53 53 53 53 53 53 53 53 53 54 56 56 57 57 56 56 55 55 55 56 57 58 60 61 63 65 67 68 69 69 69 68 68 68 68 68 66 64 63 62 62 63 63
40 39 39 38 37 37 36 35 35 36 36 37 38 39 40 41 42 44 45 47 48 50 52 53 55 56 57 58 59 59 59 59 58 58 58 58 59 59 60 60 60 60 59 58 59 60 61 63 65 66 68 69 70 71 71 71 70 69 69 69 69 68 67 65 63 63 63 63 65
39 39 39 39 38 37 37 36 36 36 36 36 37 37 38 39 41 42 43 45 47 49 51 52 54 56 57 59 61 62 63 63 63 63 63 64 64 65 65 66 66 66 65 64 65 67 68 70 71 71 72 72 72 72 72 72 71 70 70 70 70 69 66 64 63 63 64 66 67
39 39 39 39 39 39 38 38 37 37 37 37 37 38 38 39 40 41 42 43 45 47 49 51 52 54 56 58 59 61 62 64 65 66 66 68 68 69 70 71 72 72 71 71 71 72 73 74 74 73 72 72 72 72 72 71 71 71 71 71 70 68 66 64 64 65 67 69 70
40 40 40 40 40 40 40 40 40 40 40 39 39 39 39 39 40 40 41 43 44 45 47 48 50 51 53 55 56 58 60 61 62 64 65 66 68 69 70 71 72 72 72 71 71 71 71 72 71 70 69 69 69 68 69 68 68 68 68 69 68 67 66 65 66 68 70 72 71
44 44 44 43 43 43 43 43 43 43 43 43 43 43 43 42 42 43 43 43 43 44 45 46 47 48 49 51 52 54 55 57 58 59 61 62 64 65 66 67 68 68 68 67 66 67 68 68 68 68 67 66 66 66 66 66 65 65 65 65 65 65 65 66 67 70 71 71 66
50 50 50 49 49 48 48 47 48 48 48 48 48 48 48 48 48 48 48 48 48 48 48 48 48 48 48 49 50 51 52 53 55 56 58 59 60 62 63 64 65 65 65 65 65 66 68 70 70 69 68 67 67 67 66 66 65 64 63 63 63 63 63 64 66 68 68 65 61
55 56 56 56 55 55 54 54 54 53 53 53 53 53 53 53 53 54 54 54 54 54 53 53 52 52 51 51 51 51 51 52 54 55 57 58 60 61 62 64 65 65 66 67 68 71 73 75 74 73 71 69 69 68 67 67 65 64 64 63 62 63 63 65 67 66 64 61 59
57 59 60 60 60 60 60 60 60 60 59 59 59 58 58 57 57 57 57 57 57 57 57 57 57 56 56 55 55 55 55 55 56 57 59 60 61 63 65 66 67 68 69 71 73 77 80 81 80 77 74 72 71 70 69 68 67 66 65 64 65 65 66 68 67 65 63 60 58
56 59 61 62 64 64 64 65 65 65 65 65 64 64 64 63 63 62 62 62 62 62 62 63 63 62 62 62 62 62 62 62 63 63 64 65 66 68 69 70 71 72 73 74 78 82 85 86 84 81 77 74 73 72 71 70 69 68 67 67 68 69 70 70 67 65 62 60 58
54 57 60 62 64 66 67 67 68 68 68 68 68 68 69 69 69 68 69 68 68 69 69 69 69 69 69 69 69 69 69 70 70 70 71 71 73 74 75 75 75 76 76 76 81 86 88 88 86 83 80 77 76 75 74 73 71 70 69 70 71 72 73 71 68 65 62 59 57
53 56 59 61 64 65 67 68 69 69 69 69 69 69 69 69 69 69 69 69 69 69 70 70 70 70 71 71 71 71 72 72 73 73 74 75 77 78 79 79 79 78 78 78 84 88 90 89 88 85 82 79 78 77 76 75 74 73 72 72 73 74 74 72 68 65 62 59 57
53 55 58 61 63 64 66 67 67 68 68 67 67 67 67 66 65 65 64 64 64 65 65 66 66 67 67 68 68 68 69 70 72 74 75 77 79 80 81 81 80 80 79 79 85 89 91 90 89 87 83 81 80 79 78 77 75 74 73 73 74 74 74 72 68 65 62 59 56
52 54 57 59 61 63 64 64 65 65 65 65 65 64 62 61 60 58 58 57 58 58 58 58 58 58 59 59 60 62 63 65 67 69 72 75 78 80 81 80 79 78 78 78 83 87 89 90 89 87 84 82 81 80 79 77 76 75 74 74 75 75 74 71 68 64 61 58 55
51 53 55 57 59 60 60 61 62 62 62 62 61 59 58 56 54 53 52 52 51 51 51 51 51 51 52 53 54 55 56 58 60 63 66 70 74 76 76 74 73 73 74 75 79 82 84 86 85 84 82 81 81 80 79 78 76 75 75 75 75 75 74 71 68 64 60 56 53
51 52 54 55 56 56 57 57 58 58 58 57 57 55 54 52 51 49 48 47 47 47 47 47 47 47 48 48 49 50 52 54 57 61 64 68 70 71 70 70 70 71 73 75 78 79 80 82 81 80 79 79 79 79 79 78 77 76 75 75 75 75 74 72 68 64 59 56 54